Pine Ridge, SD

3:53 AM MDT on October 17, 2017 (GMT -0600)
Pine Ridge

Weather History for KIEN - November, 2012

Change the Weather History Date:

Monday, November 26, 2012

  Actual Average Record
Temperature  
Mean Temperature 22 °F 28 °F  
Max Temperature 28 °F 42 °F 66 °F (1998)
Min Temperature 16 °F 15 °F 4 °F (2015)
Degree Days  
Heating Degree Days 43 37  
Month to date heating degree days 694 785  
Since 1 July heating degree days 1441 1540  
Cooling Degree Days 0 0  
Month to date cooling degree days 0 0  
Year to date cooling degree days 1103 717  
Moisture  
Dew Point 21 °F    
Average Humidity 89    
Maximum Humidity 96    
Minimum Humidity 81    
Precipitation  
Precipitation 0.31 in 0.01 in 0.31 in (2012)
Month to date precipitation 0.79 0.53  
Year to date precipitation 11.02 17.13  
Sea Level Pressure  
Sea Level Pressure 30.33 in    
Wind  
Wind Speed 6 mph (East)    
Max Wind Speed 20 mph    
Max Gust Speed 25 mph    
Visibility 5 miles    
Events Snow    
T = Trace of Precipitation, MM = Missing Value Source: NWS Daily Summary

Daily Weather History Graph

Daily Weather History Graph

Search for Another Location

Airport or City:

Trip Planner

Search our weather history database for the weather conditions in past years. The results will help you decide how hot, cold, wet, or windy it might be!

Date:

Astronomy

Nov. 26, 2012 Rise Set
Actual Time 6:56 AM MST 4:18 PM MST
Civil Twilight 6:25 AM MST 4:49 PM MST
Nautical Twilight 5:50 AM MST 5:24 PM MST
Astronomical Twilight 5:16 AM MST 5:58 PM MST
Moon 3:13 PM MST (11/26) 5:07 AM MST (11/26)
Length of Visible Light 10h 24m
Length of Day
9h 21m
Waxing Gibbous, 97% of the Moon is Illuminated
Nov 26
Waxing Gibbous
Nov 28
Full
Dec 6
Last Quarter
Dec 13
New
Dec 19
First Quarter

Hourly Weather History & Observations

Time (MST) Temp. Windchill Dew Point Humidity Pressure Visibility Wind Dir Wind Speed Gust Speed Precip Events Conditions
12:08 AM 28.4 °F 22.2 °F 26.6 °F 93% 30.16 in 1.8 mi ENE 5.8 mph - 0.00 in Snow Light Snow
12:16 AM 28.4 °F 21.2 °F 26.6 °F 93% 30.15 in 2.0 mi ENE 6.9 mph - 0.00 in Snow Light Snow
12:23 AM 28.4 °F 22.2 °F 26.6 °F 93% 30.16 in 1.2 mi ENE 5.8 mph - 0.00 in Snow Light Snow
12:35 AM 28.4 °F 23.3 °F 26.6 °F 93% 30.16 in 1.0 mi ENE 4.6 mph - 0.00 in Snow Light Snow
12:52 AM 28.0 °F 22.8 °F 27.0 °F 96% 30.25 in 1.2 mi ENE 4.6 mph - 0.00 in Snow Light Snow
1:52 AM 28.0 °F 24.2 °F 26.1 °F 92% 30.28 in 1.2 mi East 3.5 mph - 0.00 in Snow Light Snow
2:00 AM 28.4 °F 24.6 °F 26.6 °F 93% 30.19 in 1.5 mi East 3.5 mph - 0.00 in Snow Light Snow
2:23 AM 28.4 °F - 26.6 °F 93% 30.21 in 1.5 mi Calm Calm - 0.00 in Snow Light Snow
2:38 AM 26.6 °F 17.5 °F 24.8 °F 93% 30.21 in 1.0 mi ENE 9.2 mph - 0.00 in Snow Light Snow
2:52 AM 27.0 °F 19.5 °F 25.0 °F 92% 30.30 in 1.0 mi ENE 6.9 mph - 0.00 in Snow Light Snow
3:21 AM 26.6 °F 18.2 °F 24.8 °F 93% 30.23 in 1.2 mi ENE 8.1 mph - 0.00 in Snow Light Snow
3:52 AM 25.0 °F 17.1 °F 23.0 °F 92% 30.34 in 1.2 mi East 6.9 mph - 0.00 in Snow Light Snow
4:52 AM 23.0 °F 13.9 °F 21.0 °F 92% 30.37 in 1.8 mi ENE 8.1 mph - 0.00 in Snow Light Snow
5:02 AM 23.0 °F 14.7 °F 21.2 °F 93% 30.27 in 2.0 mi ENE 6.9 mph - 0.00 in Snow Light Snow
5:15 AM 23.0 °F 14.7 °F 19.4 °F 86% 30.28 in 2.5 mi ENE 6.9 mph - 0.00 in Snow Light Snow
5:24 AM 21.2 °F 10.9 °F 19.4 °F 93% 30.28 in 2.0 mi ENE 9.2 mph - 0.00 in Snow Light Snow
5:40 AM 21.2 °F 11.7 °F 19.4 °F 93% 30.29 in 1.8 mi East 8.1 mph - 0.00 in Snow Light Snow
5:52 AM 21.9 °F 13.4 °F 19.9 °F 92% 30.41 in 1.8 mi East 6.9 mph - 0.00 in Snow Light Snow
6:02 AM 21.2 °F 12.6 °F 19.4 °F 93% 30.30 in 2.0 mi East 6.9 mph - 0.00 in Snow Light Snow
6:25 AM 21.2 °F 13.6 °F 19.4 °F 93% 30.32 in 3.0 mi East 5.8 mph - 0.00 in Snow Light Snow
6:52 AM 21.9 °F 15.7 °F 19.9 °F 92% 30.45 in 3.0 mi East 4.6 mph - 0.00 in Snow Light Snow
7:14 AM 21.2 °F 14.9 °F 19.4 °F 93% 30.34 in 2.5 mi East 4.6 mph - 0.00 in Snow Light Snow
7:52 AM 21.9 °F 15.7 °F 19.0 °F 89% 30.47 in 1.8 mi East 4.6 mph - 0.00 in Snow Light Snow
7:57 AM 21.2 °F 14.9 °F 19.4 °F 93% 30.35 in 2.0 mi East 4.6 mph - 0.00 in Snow Light Snow
8:12 AM 21.2 °F 14.9 °F 17.6 °F 86% 30.35 in 4.0 mi ENE 4.6 mph - 0.00 in   Scattered Clouds
8:52 AM 19.9 °F 14.9 °F 17.1 °F 89% 30.48 in 7.0 mi ENE 3.5 mph - 0.00 in   Partly Cloudy
9:52 AM 18.0 °F - 16.0 °F 92% 30.50 in 8.0 mi Calm Calm - N/A   Clear
10:20 AM 19.4 °F - 19.4 °F 100% 30.38 in 4.0 mi Calm Calm - 0.04 in   Mostly Cloudy
10:34 AM 19.4 °F - 19.4 °F 100% 30.37 in 6.0 mi Calm Calm - 0.06 in   Overcast
10:52 AM 24.1 °F - 23.0 °F 96% 30.48 in 8.0 mi Calm Calm - 0.08 in   Overcast
11:41 AM 24.8 °F 16.9 °F 23.0 °F 93% 30.35 in 10.0 mi WSW 6.9 mph - 0.08 in   Overcast
11:52 AM 25.0 °F 18.1 °F 23.0 °F 92% 30.45 in 8.0 mi WSW 5.8 mph - 0.10 in   Mostly Cloudy
11:57 AM 24.8 °F 17.9 °F 23.0 °F 93% 30.34 in 8.0 mi WSW 5.8 mph - N/A   Scattered Clouds
12:06 PM 24.8 °F 17.9 °F 23.0 °F 93% 30.34 in 9.0 mi West 5.8 mph - 0.01 in   Mostly Cloudy
12:16 PM 26.6 °F 18.2 °F 23.0 °F 86% 30.34 in 10.0 mi West 8.1 mph - 0.02 in   Scattered Clouds
12:52 PM 26.1 °F 17.6 °F 23.0 °F 88% 30.44 in 10.0 mi WSW 8.1 mph - 0.05 in   Clear
1:52 PM 26.1 °F - 23.0 °F 88% 30.41 in 10.0 mi Calm Calm - 0.06 in   Clear
2:52 PM 25.0 °F - 21.9 °F 88% 30.40 in 10.0 mi Calm Calm - 0.02 in   Clear
3:52 PM 21.0 °F - 18.0 °F 88% 30.40 in 9.0 mi Calm Calm - N/A   Clear
4:52 PM 19.0 °F 10.0 °F 16.0 °F 88% 30.40 in 10.0 mi SW 6.9 mph - N/A   Clear
5:52 PM 17.1 °F 6.6 °F 14.0 °F 88% 30.40 in 10.0 mi SSW 8.1 mph - N/A   Clear
6:52 PM 19.9 °F 13.4 °F 17.1 °F 89% 30.38 in 10.0 mi SW 4.6 mph - N/A   Clear
7:52 PM 23.0 °F 17.0 °F 19.0 °F 85% 30.35 in 10.0 mi Variable 4.6 mph - N/A   Clear
8:52 PM 26.1 °F 15.6 °F 21.0 °F 81% 30.33 in 10.0 mi SSW 11.5 mph - N/A   Clear
9:52 PM 27.0 °F 15.2 °F 21.0 °F 78% 30.31 in 10.0 mi SSW 15.0 mph 21.9 mph N/A   Clear
10:52 PM 25.0 °F 12.2 °F 19.9 °F 81% 30.27 in 10.0 mi South 16.1 mph - N/A   Clear
11:52 PM 25.0 °F 12.6 °F 19.9 °F 81% 30.26 in 10.0 mi SSW 15.0 mph - N/A   Clear